PulseSat

PulseSat

MOLNIYA 1-90

Last updated on Dec. 9, 2018, 12:08 a.m. UTC

1 24960U 97054A   18341.62345805  .00000051  00000-0 -13015-3 0  9996
2 24960  62.7770 124.2293 6425870 297.4022  12.3405  3.18683384166960
UTC
Height (km)
Latitude
Longitude
Inclination
Orbital Period

Next 30 passes for location: Hong Kong

Rise time Rise Azimuth (degrees) Set time Set Azimuth (degrees) Duration Max altitude (degrees)

No matching passes for this satellites

PulseSat

PulseSat is the new satellites software and hardware trackering solution by Pulsely.
Satellite Two Line Element Set source: US Air Force Space Command

Download PulseSat for iOS
© 2017 Pulsely Limited